Private Wetterstation Sandau
Wetterdaten: Donnerstag, 28.06.2012
Datum Zeit Temp. A. Feuchte A. Luftdruck Regen Wind Richtung Richtung Taupunkt Windchill
28.06.2012 00:01 15,4 C 89 % 1014,7 hPa 0,0 l/m 0,0 km/h (0 Bft) S 180 13,6 C 15,4 C
28.06.2012 00:06 15,4 C 89 % 1014,9 hPa 0,0 l/m 2,5 km/h (1 Bft) S-SO 157 13,6 C 15,4 C
28.06.2012 00:11 15,4 C 89 % 1014,5 hPa 0,0 l/m 1,4 km/h (1 Bft) S-SO 157 13,6 C 15,4 C
28.06.2012 00:16 15,4 C 89 % 1014,6 hPa 0,0 l/m 0,0 km/h (0 Bft) S-SO 157 13,6 C 15,4 C
28.06.2012 00:21 15,4 C 89 % 1014,6 hPa 0,0 l/m 2,5 km/h (1 Bft) S-SO 157 13,6 C 15,4 C
28.06.2012 00:26 15,4 C 89 % 1014,6 hPa 0,0 l/m 0,0 km/h (0 Bft) S-SO 157 13,6 C 15,4 C
28.06.2012 00:31 15,4 C 89 % 1014,6 hPa 0,0 l/m 0,0 km/h (0 Bft) S 180 13,6 C 15,4 C
28.06.2012 00:36 15,5 C 89 % 1014,5 hPa 0,0 l/m 1,1 km/h (1 Bft) S-SO 157 13,7 C 15,5 C
28.06.2012 00:41 15,4 C 89 % 1014,5 hPa 0,0 l/m 1,4 km/h (1 Bft) S-SO 157 13,6 C 15,4 C
28.06.2012 00:46 15,4 C 89 % 1014,3 hPa 0,0 l/m 2,2 km/h (1 Bft) S 180 13,6 C 15,4 C
28.06.2012 00:51 15,4 C 89 % 1014,3 hPa 0,0 l/m 1,4 km/h (1 Bft) S-SO 157 13,6 C 15,4 C
28.06.2012 00:56 15,4 C 89 % 1014,3 hPa 0,0 l/m 0,0 km/h (0 Bft) S-SO 157 13,6 C 15,4 C
28.06.2012 01:01 15,4 C 90 % 1014,4 hPa 0,0 l/m 0,0 km/h (0 Bft) S 180 13,8 C 15,4 C
28.06.2012 01:06 15,4 C 90 % 1014,3 hPa 0,0 l/m 0,0 km/h (0 Bft) S 180 13,8 C 15,4 C
28.06.2012 01:11 15,4 C 90 % 1014,2 hPa 0,0 l/m 0,0 km/h (0 Bft) S-SO 157 13,8 C 15,4 C
28.06.2012 01:16 15,4 C 90 % 1014,4 hPa 0,0 l/m 1,4 km/h (1 Bft) S 180 13,8 C 15,4 C
28.06.2012 01:21 15,4 C 90 % 1014,3 hPa 0,0 l/m 0,0 km/h (0 Bft) S 180 13,8 C 15,4 C
28.06.2012 01:26 15,4 C 90 % 1014,5 hPa 0,0 l/m 0,0 km/h (0 Bft) S-SO 157 13,8 C 15,4 C
28.06.2012 01:31 15,4 C 90 % 1014,2 hPa 0,0 l/m 0,0 km/h (0 Bft) S 180 13,8 C 15,4 C
28.06.2012 01:36 15,4 C 90 % 1014,3 hPa 0,0 l/m 1,4 km/h (1 Bft) S 180 13,8 C 15,4 C
28.06.2012 01:41 15,4 C 90 % 1014,3 hPa 0,0 l/m 0,0 km/h (0 Bft) S 180 13,8 C 15,4 C
28.06.2012 01:46 15,4 C 90 % 1014,3 hPa 0,0 l/m 0,0 km/h (0 Bft) S-SW 202 13,8 C 15,4 C
28.06.2012 01:51 15,4 C 90 % 1014,3 hPa 0,0 l/m 0,0 km/h (0 Bft) S 180 13,8 C 15,4 C
28.06.2012 01:56 15,5 C 90 % 1014,3 hPa 0,0 l/m 0,0 km/h (0 Bft) S-SW 202 13,9 C 15,5 C
28.06.2012 02:01 15,5 C 90 % 1014,2 hPa 0,0 l/m 1,4 km/h (1 Bft) S-SW 202 13,9 C 15,5 C
28.06.2012 02:06 15,5 C 90 % 1014,3 hPa 0,0 l/m 0,0 km/h (0 Bft) SW 225 13,9 C 15,5 C
28.06.2012 02:11 15,5 C 90 % 1014,3 hPa 0,0 l/m 2,2 km/h (1 Bft) SW 225 13,9 C 15,5 C
28.06.2012 02:16 15,5 C 90 % 1014,3 hPa 0,0 l/m 0,0 km/h (0 Bft) W-SW 247 13,9 C 15,5 C
28.06.2012 02:21 15,5 C 90 % 1014,3 hPa 0,0 l/m 0,0 km/h (0 Bft) W-SW 247 13,9 C 15,5 C
28.06.2012 02:26 15,5 C 90 % 1014,1 hPa 0,0 l/m 2,9 km/h (1 Bft) W-SW 247 13,9 C 15,5 C
28.06.2012 02:31 15,6 C 90 % 1014,1 hPa 0,0 l/m 4,0 km/h (1 Bft) W-SW 247 14,0 C 15,6 C
28.06.2012 02:36 15,5 C 90 % 1014,1 hPa 0,0 l/m 3,6 km/h (1 Bft) W 270 13,9 C 15,5 C
28.06.2012 02:41 15,6 C 90 % 1014,0 hPa 0,0 l/m 2,5 km/h (1 Bft) SW 225 14,0 C 15,6 C
28.06.2012 02:46 15,6 C 90 % 1014,1 hPa 0,0 l/m 2,2 km/h (1 Bft) S-SW 202 14,0 C 15,6 C
28.06.2012 02:51 15,6 C 90 % 1014,0 hPa 0,0 l/m 2,5 km/h (1 Bft) W-SW 247 14,0 C 15,6 C
28.06.2012 02:56 15,6 C 90 % 1014,0 hPa 0,0 l/m 1,4 km/h (1 Bft) W-SW 247 14,0 C 15,6 C
28.06.2012 03:01 15,6 C 90 % 1014,0 hPa 0,0 l/m 4,7 km/h (1 Bft) W 270 14,0 C 15,6 C
28.06.2012 03:06 15,6 C 90 % 1013,9 hPa 0,0 l/m 7,2 km/h (2 Bft) W-SW 247 14,0 C 15,6 C
28.06.2012 03:11 15,6 C 90 % 1013,9 hPa 0,0 l/m 7,6 km/h (2 Bft) W-SW 247 14,0 C 15,6 C
28.06.2012 03:16 15,7 C 90 % 1013,9 hPa 0,0 l/m 6,8 km/h (2 Bft) W-SW 247 14,1 C 15,7 C
28.06.2012 03:21 15,8 C 90 % 1013,9 hPa 0,0 l/m 4,0 km/h (1 Bft) W-SW 247 14,2 C 15,8 C
28.06.2012 03:26 15,8 C 90 % 1013,9 hPa 0,0 l/m 2,5 km/h (1 Bft) W 270 14,2 C 15,8 C
28.06.2012 03:31 15,8 C 90 % 1013,9 hPa 0,0 l/m 2,2 km/h (1 Bft) W 270 14,2 C 15,8 C
28.06.2012 03:36 15,8 C 90 % 1013,8 hPa 0,0 l/m 4,0 km/h (1 Bft) W 270 14,2 C 15,8 C
28.06.2012 03:41 15,8 C 90 % 1013,9 hPa 0,0 l/m 4,0 km/h (1 Bft) W-NW 292 14,2 C 15,8 C
28.06.2012 03:46 15,8 C 90 % 1013,9 hPa 0,0 l/m 3,6 km/h (1 Bft) W 270 14,2 C 15,8 C
28.06.2012 03:51 15,8 C 90 % 1013,9 hPa 0,0 l/m 4,7 km/h (1 Bft) W-SW 247 14,2 C 15,8 C
28.06.2012 03:56 15,8 C 90 % 1014,0 hPa 0,0 l/m 3,2 km/h (1 Bft) W 270 14,2 C 15,8 C
28.06.2012 04:01 15,8 C 90 % 1014,1 hPa 0,0 l/m 3,2 km/h (1 Bft) W 270 14,2 C 15,8 C
28.06.2012 04:06 15,8 C 90 % 1014,1 hPa 0,0 l/m 0,0 km/h (0 Bft) W 270 14,2 C 15,8 C
28.06.2012 04:11 15,8 C 90 % 1014,1 hPa 0,0 l/m 4,3 km/h (1 Bft) W-NW 292 14,2 C 15,8 C
28.06.2012 04:16 15,8 C 90 % 1014,0 hPa 0,0 l/m 2,9 km/h (1 Bft) W-NW 292 14,2 C 15,8 C
28.06.2012 04:21 15,9 C 90 % 1014,0 hPa 0,0 l/m 8,3 km/h (2 Bft) NW 315 14,3 C 15,9 C
28.06.2012 04:26 15,9 C 90 % 1013,9 hPa 0,0 l/m 3,6 km/h (1 Bft) W-NW 292 14,3 C 15,9 C
28.06.2012 04:31 15,9 C 90 % 1013,9 hPa 0,0 l/m 7,6 km/h (2 Bft) NW 315 14,3 C 15,9 C
28.06.2012 04:36 15,9 C 90 % 1013,9 hPa 0,0 l/m 2,5 km/h (1 Bft) W 270 14,3 C 15,9 C
28.06.2012 04:41 15,9 C 90 % 1013,9 hPa 0,0 l/m 7,6 km/h (2 Bft) W-SW 247 14,3 C 15,9 C
28.06.2012 04:46 15,9 C 90 % 1013,9 hPa 0,0 l/m 5,8 km/h (2 Bft) W-NW 292 14,3 C 15,9 C
28.06.2012 04:51 15,9 C 90 % 1013,9 hPa 0,0 l/m 7,6 km/h (2 Bft) W-NW 292 14,3 C 15,9 C
28.06.2012 04:56 15,9 C 90 % 1013,9 hPa 0,0 l/m 3,6 km/h (1 Bft) W-SW 247 14,3 C 15,9 C
28.06.2012 05:01 15,9 C 90 % 1013,8 hPa 0,0 l/m 2,5 km/h (1 Bft) W-NW 292 14,3 C 15,9 C
28.06.2012 05:06 15,9 C 90 % 1013,9 hPa 0,0 l/m 2,5 km/h (1 Bft) W 270 14,3 C 15,9 C
28.06.2012 05:11 15,9 C 90 % 1013,8 hPa 0,0 l/m 1,1 km/h (1 Bft) W 270 14,3 C 15,9 C
28.06.2012 05:16 15,8 C 90 % 1013,9 hPa 0,0 l/m 5,0 km/h (1 Bft) W-SW 247 14,2 C 15,8 C
28.06.2012 05:21 15,8 C 90 % 1013,9 hPa 0,0 l/m 0,0 km/h (0 Bft) W-SW 247 14,2 C 15,8 C
28.06.2012 05:26 15,8 C 90 % 1013,9 hPa 0,0 l/m 0,0 km/h (0 Bft) W-NW 292 14,2 C 15,8 C
28.06.2012 05:31 15,8 C 90 % 1014,1 hPa 0,0 l/m 3,6 km/h (1 Bft) W-SW 247 14,2 C 15,8 C
28.06.2012 05:36 15,8 C 90 % 1014,1 hPa 0,0 l/m 2,5 km/h (1 Bft) W 270 14,2 C 15,8 C
28.06.2012 05:41 15,8 C 90 % 1014,1 hPa 0,0 l/m 0,0 km/h (0 Bft) W-SW 247 14,2 C 15,8 C
28.06.2012 05:46 15,8 C 90 % 1014,1 hPa 0,0 l/m 5,8 km/h (2 Bft) W 270 14,2 C 15,8 C
28.06.2012 05:51 15,8 C 90 % 1014,2 hPa 0,0 l/m 2,2 km/h (1 Bft) W 270 14,2 C 15,8 C
28.06.2012 05:56 15,8 C 90 % 1014,2 hPa 0,0 l/m 3,6 km/h (1 Bft) W 270 14,2 C 15,8 C
28.06.2012 06:01 15,8 C 90 % 1014,1 hPa 0,0 l/m 2,2 km/h (1 Bft) NW 315 14,2 C 15,8 C
28.06.2012 06:06 15,8 C 90 % 1014,2 hPa 0,0 l/m 1,4 km/h (1 Bft) W 270 14,2 C 15,8 C
28.06.2012 06:11 15,8 C 90 % 1014,2 hPa 0,0 l/m 1,4 km/h (1 Bft) W 270 14,2 C 15,8 C
28.06.2012 06:16 15,8 C 90 % 1014,2 hPa 0,0 l/m 4,0 km/h (1 Bft) SW 225 14,2 C 15,8 C
28.06.2012 06:21 15,9 C 90 % 1014,2 hPa 0,0 l/m 6,1 km/h (2 Bft) W 270 14,3 C 15,9 C
28.06.2012 06:26 15,9 C 90 % 1014,1 hPa 0,0 l/m 1,4 km/h (1 Bft) W 270 14,3 C 15,9 C
28.06.2012 06:31 15,9 C 90 % 1014,1 hPa 0,0 l/m 1,8 km/h (1 Bft) W 270 14,3 C 15,9 C
28.06.2012 06:36 15,9 C 90 % 1014,2 hPa 0,0 l/m 4,0 km/h (1 Bft) SW 225 14,3 C 15,9 C
28.06.2012 06:41 15,9 C 90 % 1014,2 hPa 0,0 l/m 2,5 km/h (1 Bft) W 270 14,3 C 15,9 C
28.06.2012 06:46 16,0 C 90 % 1014,0 hPa 0,0 l/m 5,8 km/h (2 Bft) W-NW 292 14,4 C 16,0 C
28.06.2012 06:51 16,1 C 91 % 1014,1 hPa 0,0 l/m 7,2 km/h (2 Bft) N-NW 337 14,6 C 16,1 C
28.06.2012 06:56 16,3 C 90 % 1014,1 hPa 0,0 l/m 4,0 km/h (1 Bft) W 270 14,7 C 16,3 C
28.06.2012 07:01 16,4 C 90 % 1014,1 hPa 0,0 l/m 12,6 km/h (3 Bft) W-NW 292 14,8 C 16,4 C
28.06.2012 07:06 16,4 C 89 % 1014,2 hPa 0,0 l/m 10,4 km/h (2 Bft) W 270 14,6 C 16,4 C
28.06.2012 07:11 16,4 C 89 % 1014,2 hPa 0,0 l/m 5,8 km/h (2 Bft) W 270 14,6 C 16,4 C
28.06.2012 07:16 16,4 C 89 % 1014,2 hPa 0,0 l/m 6,1 km/h (2 Bft) W-NW 292 14,6 C 16,4 C
28.06.2012 07:21 16,4 C 89 % 1014,2 hPa 0,0 l/m 1,4 km/h (1 Bft) W-NW 292 14,6 C 16,4 C
28.06.2012 07:26 16,4 C 89 % 1014,2 hPa 0,0 l/m 4,0 km/h (1 Bft) W-NW 292 14,6 C 16,4 C
28.06.2012 07:31 16,5 C 89 % 1014,2 hPa 0,0 l/m 4,7 km/h (1 Bft) W 270 14,7 C 16,5 C
28.06.2012 07:36 16,6 C 89 % 1014,1 hPa 0,0 l/m 0,0 km/h (0 Bft) NW 315 14,8 C 16,6 C
28.06.2012 07:41 16,7 C 89 % 1014,1 hPa 0,0 l/m 1,8 km/h (1 Bft) W-NW 292 14,9 C 16,7 C
28.06.2012 07:46 16,8 C 89 % 1014,1 hPa 0,0 l/m 7,2 km/h (2 Bft) W-NW 292 15,0 C 16,8 C
28.06.2012 07:51 16,9 C 89 % 1014,0 hPa 0,0 l/m 2,9 km/h (1 Bft) W 270 15,1 C 16,9 C
28.06.2012 07:56 16,9 C 89 % 1014,1 hPa 0,0 l/m 4,0 km/h (1 Bft) NO 45 15,1 C 16,9 C
28.06.2012 08:01 16,9 C 89 % 1014,1 hPa 0,0 l/m 6,1 km/h (2 Bft) NW 315 15,1 C 16,9 C
28.06.2012 08:06 17,1 C 89 % 1014,2 hPa 0,0 l/m 4,7 km/h (1 Bft) W-NW 292 15,3 C 17,1 C
28.06.2012 08:11 17,2 C 89 % 1014,3 hPa 0,0 l/m 6,5 km/h (2 Bft) W-NW 292 15,4 C 17,2 C
28.06.2012 08:16 17,4 C 88 % 1014,2 hPa 0,0 l/m 0,0 km/h (0 Bft) W 270 15,4 C 17,4 C
28.06.2012 08:21 17,6 C 87 % 1014,3 hPa 0,0 l/m 4,0 km/h (1 Bft) W-NW 292 15,4 C 17,6 C
28.06.2012 08:26 17,6 C 87 % 1014,4 hPa 0,0 l/m 4,0 km/h (1 Bft) NW 315 15,4 C 17,6 C
28.06.2012 08:31 17,6 C 86 % 1014,4 hPa 0,0 l/m 5,4 km/h (1 Bft) W-NW 292 15,2 C 17,6 C
28.06.2012 08:36 17,6 C 86 % 1014,5 hPa 0,0 l/m 8,6 km/h (2 Bft) W-NW 292 15,2 C 17,6 C
28.06.2012 08:41 17,6 C 86 % 1014,5 hPa 0,0 l/m 9,0 km/h (2 Bft) NW 315 15,2 C 17,6 C
28.06.2012 08:46 17,6 C 86 % 1014,5 hPa 0,0 l/m 6,1 km/h (2 Bft) W-NW 292 15,2 C 17,6 C
28.06.2012 08:51 17,6 C 86 % 1014,5 hPa 0,0 l/m 4,3 km/h (1 Bft) W-NW 292 15,2 C 17,6 C
28.06.2012 08:56 17,7 C 86 % 1014,6 hPa 0,0 l/m 5,8 km/h (2 Bft) W-NW 292 15,3 C 17,7 C
28.06.2012 09:01 17,8 C 86 % 1014,6 hPa 0,0 l/m 4,0 km/h (1 Bft) W 270 15,4 C 17,8 C
28.06.2012 09:06 17,9 C 86 % 1014,6 hPa 0,0 l/m 6,5 km/h (2 Bft) NW 315 15,5 C 17,9 C
28.06.2012 09:11 17,9 C 85 % 1014,6 hPa 0,0 l/m 3,2 km/h (1 Bft) W-NW 292 15,3 C 17,9 C
28.06.2012 09:16 18,1 C 85 % 1014,7 hPa 0,0 l/m 6,5 km/h (2 Bft) W-NW 292 15,5 C 18,1 C
28.06.2012 09:21 18,2 C 84 % 1014,8 hPa 0,0 l/m 3,6 km/h (1 Bft) W-NW 292 15,4 C 18,2 C
28.06.2012 09:26 18,3 C 84 % 1014,8 hPa 0,0 l/m 9,7 km/h (2 Bft) NW 315 15,5 C 18,3 C
28.06.2012 09:31 18,6 C 84 % 1014,7 hPa 0,0 l/m 0,0 km/h (0 Bft) W-SW 247 15,8 C 18,6 C
28.06.2012 09:36 18,7 C 83 % 1014,8 hPa 0,0 l/m 5,0 km/h (1 Bft) W-NW 292 15,8 C 18,7 C
28.06.2012 09:41 18,9 C 83 % 1014,8 hPa 0,0 l/m 0,0 km/h (0 Bft) NO 45 15,9 C 18,9 C
28.06.2012 09:46 18,9 C 82 % 1014,8 hPa 0,0 l/m 0,0 km/h (0 Bft) W 270 15,8 C 18,9 C
28.06.2012 09:51 19,1 C 82 % 1014,7 hPa 0,0 l/m 3,2 km/h (1 Bft) W 270 16,0 C 19,1 C
28.06.2012 09:56 19,1 C 81 % 1014,7 hPa 0,0 l/m 4,3 km/h (1 Bft) NW 315 15,8 C 19,1 C
28.06.2012 10:01 19,2 C 80 % 1014,8 hPa 0,0 l/m 7,6 km/h (2 Bft) W-NW 292 15,7 C 19,2 C
28.06.2012 10:06 19,3 C 80 % 1014,8 hPa 0,0 l/m 2,9 km/h (1 Bft) W 270 15,8 C 19,3 C
28.06.2012 10:11 19,3 C 80 % 1014,9 hPa 0,0 l/m 2,9 km/h (1 Bft) W-NW 292 15,8 C 19,3 C
28.06.2012 10:16 19,3 C 80 % 1014,9 hPa 0,0 l/m 1,4 km/h (1 Bft) W 270 15,8 C 19,3 C
28.06.2012 10:21 19,4 C 80 % 1014,8 hPa 0,0 l/m 2,5 km/h (1 Bft) W-SW 247 15,9 C 19,4 C
28.06.2012 10:26 19,4 C 80 % 1014,9 hPa 0,0 l/m 1,8 km/h (1 Bft) NW 315 15,9 C 19,4 C
28.06.2012 10:31 19,5 C 80 % 1014,8 hPa 0,0 l/m 1,1 km/h (1 Bft) NW 315 16,0 C 19,5 C
28.06.2012 10:36 19,7 C 79 % 1014,7 hPa 0,0 l/m 0,0 km/h (0 Bft) W-NW 292 16,0 C 19,7 C
28.06.2012 10:41 19,8 C 78 % 1014,6 hPa 0,0 l/m 1,8 km/h (1 Bft) W-NW 292 15,8 C 19,8 C
28.06.2012 10:46 19,8 C 78 % 1014,6 hPa 0,0 l/m 4,0 km/h (1 Bft) NW 315 15,8 C 19,8 C
28.06.2012 10:51 19,8 C 77 % 1014,6 hPa 0,0 l/m 2,2 km/h (1 Bft) NW 315 15,6 C 19,8 C
28.06.2012 10:56 19,8 C 77 % 1014,7 hPa 0,0 l/m 0,0 km/h (0 Bft) N-NO 22 15,6 C 19,8 C
28.06.2012 11:01 19,8 C 77 % 1014,6 hPa 0,0 l/m 2,2 km/h (1 Bft) NO 45 15,6 C 19,8 C
28.06.2012 11:06 19,8 C 77 % 1014,6 hPa 0,0 l/m 1,4 km/h (1 Bft) N 360 15,6 C 19,8 C
28.06.2012 11:11 19,9 C 76 % 1014,6 hPa 0,0 l/m 4,0 km/h (1 Bft) W-NW 292 15,5 C 19,9 C
28.06.2012 11:16 19,9 C 76 % 1014,6 hPa 0,0 l/m 2,9 km/h (1 Bft) O-NO 67 15,5 C 19,9 C
28.06.2012 11:21 19,9 C 76 % 1014,6 hPa 0,0 l/m 3,2 km/h (1 Bft) N 360 15,5 C 19,9 C
28.06.2012 11:26 20,0 C 76 % 1014,6 hPa 0,0 l/m 3,2 km/h (1 Bft) N-NO 22 15,6 C 20,0 C
28.06.2012 11:31 20,0 C 75 % 1014,5 hPa 0,0 l/m 4,0 km/h (1 Bft) N 360 15,4 C 20,0 C
28.06.2012 11:36 19,9 C 75 % 1014,5 hPa 0,0 l/m 2,2 km/h (1 Bft) O-SO 112 15,3 C 19,9 C
28.06.2012 11:41 19,9 C 75 % 1014,4 hPa 0,0 l/m 0,0 km/h (0 Bft) W 270 15,3 C 19,9 C
28.06.2012 11:46 20,1 C 75 % 1014,4 hPa 0,0 l/m 0,0 km/h (0 Bft) N-NW 337 15,5 C 20,1 C
28.06.2012 11:51 20,1 C 74 % 1014,5 hPa 0,0 l/m 0,0 km/h (0 Bft) O 90 15,3 C 20,1 C
28.06.2012 11:56 20,2 C 74 % 1014,5 hPa 0,0 l/m 0,0 km/h (0 Bft) O-SO 112 15,4 C 20,2 C
28.06.2012 12:01 20,4 C 74 % 1014,3 hPa 0,0 l/m 1,1 km/h (1 Bft) W-SW 247 15,6 C 20,4 C
28.06.2012 12:06 20,4 C 74 % 1014,4 hPa 0,0 l/m 0,0 km/h (0 Bft) W-NW 292 15,6 C 20,4 C
28.06.2012 12:11 20,5 C 74 % 1014,4 hPa 0,0 l/m 0,0 km/h (0 Bft) W 270 15,7 C 20,5 C
28.06.2012 12:16 20,4 C 74 % 1014,4 hPa 0,0 l/m 0,0 km/h (0 Bft) W-NW 292 15,6 C 20,4 C
28.06.2012 12:21 20,4 C 73 % 1014,5 hPa 0,0 l/m 0,0 km/h (0 Bft) W-SW 247 15,4 C 20,4 C
28.06.2012 12:26 20,3 C 73 % 1014,5 hPa 0,0 l/m 0,0 km/h (0 Bft) S 180 15,3 C 20,3 C
28.06.2012 12:31 20,4 C 74 % 1014,5 hPa 0,0 l/m 1,4 km/h (1 Bft) W-NW 292 15,6 C 20,4 C
28.06.2012 12:36 20,8 C 74 % 1014,5 hPa 0,0 l/m 3,2 km/h (1 Bft) SW 225 16,0 C 20,8 C
28.06.2012 12:41 21,1 C 74 % 1014,4 hPa 0,0 l/m 1,4 km/h (1 Bft) S-SO 157 16,3 C 21,1 C
28.06.2012 12:46 21,4 C 73 % 1014,3 hPa 0,0 l/m 3,6 km/h (1 Bft) S 180 16,4 C 21,4 C
28.06.2012 12:51 21,8 C 72 % 1014,5 hPa 0,0 l/m 2,2 km/h (1 Bft) N 360 16,5 C 21,8 C
28.06.2012 12:56 21,8 C 72 % 1014,4 hPa 0,0 l/m 3,6 km/h (1 Bft) S 180 16,5 C 21,8 C
28.06.2012 13:01 21,8 C 71 % 1014,3 hPa 0,0 l/m 4,0 km/h (1 Bft) S-SO 157 16,3 C 21,8 C
28.06.2012 13:06 21,8 C 71 % 1014,4 hPa 0,0 l/m 5,0 km/h (1 Bft) W-NW 292 16,3 C 21,8 C
28.06.2012 13:11 22,2 C 70 % 1014,3 hPa 0,0 l/m 0,0 km/h (0 Bft) N-NW 337 16,5 C 22,2 C
28.06.2012 13:16 22,4 C 69 % 1014,2 hPa 0,0 l/m 4,0 km/h (1 Bft) W-NW 292 16,4 C 22,4 C
28.06.2012 13:21 22,6 C 68 % 1014,1 hPa 0,0 l/m 4,0 km/h (1 Bft) W 270 16,4 C 22,6 C
28.06.2012 13:26 22,9 C 67 % 1014,1 hPa 0,0 l/m 0,0 km/h (0 Bft) N-NO 22 16,4 C 22,9 C
28.06.2012 13:31 22,9 C 67 % 1014,1 hPa 0,0 l/m 2,2 km/h (1 Bft) S-SW 202 16,4 C 22,9 C
28.06.2012 13:36 23,2 C 68 % 1014,0 hPa 0,0 l/m 2,2 km/h (1 Bft) S-SW 202 17,0 C 23,2 C
28.06.2012 13:41 23,3 C 67 % 1014,1 hPa 0,0 l/m 2,5 km/h (1 Bft) SW 225 16,8 C 23,3 C
28.06.2012 13:46 23,2 C 67 % 1013,9 hPa 0,0 l/m 3,2 km/h (1 Bft) W-SW 247 16,7 C 23,2 C
28.06.2012 13:51 23,0 C 67 % 1013,9 hPa 0,0 l/m 4,7 km/h (1 Bft) W-SW 247 16,5 C 23,0 C
28.06.2012 13:56 22,8 C 67 % 1014,0 hPa 0,0 l/m 4,7 km/h (1 Bft) W-SW 247 16,3 C 22,8 C
28.06.2012 14:01 22,6 C 67 % 1014,0 hPa 0,0 l/m 4,7 km/h (1 Bft) S-SW 202 16,2 C 22,6 C
28.06.2012 14:06 22,5 C 68 % 1014,0 hPa 0,0 l/m 5,0 km/h (1 Bft) W-NW 292 16,3 C 22,5 C
28.06.2012 14:11 22,4 C 68 % 1014,0 hPa 0,0 l/m 0,0 km/h (0 Bft) N 360 16,2 C 22,4 C
28.06.2012 14:16 22,4 C 68 % 1013,8 hPa 0,0 l/m 0,0 km/h (0 Bft) NW 315 16,2 C 22,4 C
28.06.2012 14:21 22,5 C 68 % 1013,9 hPa 0,0 l/m 0,0 km/h (0 Bft) NW 315 16,3 C 22,5 C
28.06.2012 14:26 22,6 C 67 % 1013,8 hPa 0,0 l/m 2,9 km/h (1 Bft) N-NO 22 16,2 C 22,6 C
28.06.2012 14:31 22,9 C 66 % 1013,8 hPa 0,0 l/m 2,9 km/h (1 Bft) NO 45 16,2 C 22,9 C
28.06.2012 14:36 22,9 C 66 % 1013,9 hPa 0,0 l/m 2,2 km/h (1 Bft) W-NW 292 16,2 C 22,9 C
28.06.2012 14:41 23,2 C 66 % 1013,7 hPa 0,0 l/m 0,0 km/h (0 Bft) W 270 16,5 C 23,2 C
28.06.2012 14:46 23,5 C 66 % 1013,8 hPa 0,0 l/m 0,0 km/h (0 Bft) W 270 16,8 C 23,5 C
28.06.2012 14:51 23,8 C 62 % 1013,7 hPa 0,0 l/m 3,2 km/h (1 Bft) W-NW 292 16,1 C 23,8 C
28.06.2012 14:56 23,8 C 63 % 1013,5 hPa 0,0 l/m 4,0 km/h (1 Bft) W 270 16,3 C 23,8 C
28.06.2012 15:01 24,1 C 64 % 1013,6 hPa 0,0 l/m 0,0 km/h (0 Bft) W-NW 292 16,9 C 24,1 C
28.06.2012 15:06 24,4 C 63 % 1013,7 hPa 0,0 l/m 2,9 km/h (1 Bft) W 270 16,9 C 24,4 C
28.06.2012 15:11 24,8 C 63 % 1013,6 hPa 0,0 l/m 2,9 km/h (1 Bft) SW 225 17,3 C 24,8 C
28.06.2012 15:16 24,9 C 61 % 1013,6 hPa 0,0 l/m 0,0 km/h (0 Bft) W-NW 292 16,8 C 24,9 C
28.06.2012 15:21 25,1 C 61 % 1013,6 hPa 0,0 l/m 0,0 km/h (0 Bft) S 180 17,0 C 25,1 C
28.06.2012 15:26 25,3 C 60 % 1013,7 hPa 0,0 l/m 6,1 km/h (2 Bft) W 270 17,0 C 25,3 C
28.06.2012 15:31 25,1 C 59 % 1013,6 hPa 0,0 l/m 3,6 km/h (1 Bft) W-NW 292 16,5 C 25,1 C
28.06.2012 15:36 24,9 C 58 % 1013,6 hPa 0,0 l/m 1,4 km/h (1 Bft) O-SO 112 16,1 C 24,9 C
28.06.2012 15:41 24,4 C 58 % 1013,5 hPa 0,0 l/m 2,9 km/h (1 Bft) O-NO 67 15,6 C 24,4 C
28.06.2012 15:46 24,1 C 59 % 1013,4 hPa 0,0 l/m 1,8 km/h (1 Bft) O-SO 112 15,6 C 24,1 C
28.06.2012 15:51 24,1 C 59 % 1013,4 hPa 0,0 l/m 1,8 km/h (1 Bft) N 360 15,6 C 24,1 C
28.06.2012 15:56 23,9 C 60 % 1013,4 hPa 0,0 l/m 2,9 km/h (1 Bft) S 180 15,7 C 23,9 C
28.06.2012 16:01 24,0 C 60 % 1013,3 hPa 0,0 l/m 0,0 km/h (0 Bft) S 180 15,7 C 24,0 C
28.06.2012 16:06 24,2 C 61 % 1013,3 hPa 0,0 l/m 3,2 km/h (1 Bft) S 180 16,2 C 24,2 C
28.06.2012 16:11 24,6 C 61 % 1013,2 hPa 0,0 l/m 4,3 km/h (1 Bft) S 180 16,6 C 24,6 C
28.06.2012 16:16 24,8 C 60 % 1013,2 hPa 0,0 l/m 0,0 km/h (0 Bft) N 360 16,5 C 24,8 C
28.06.2012 16:21 24,9 C 59 % 1013,2 hPa 0,0 l/m 0,0 km/h (0 Bft) O-SO 112 16,3 C 24,9 C
28.06.2012 16:26 24,7 C 59 % 1013,1 hPa 0,0 l/m 6,8 km/h (2 Bft) O 90 16,1 C 24,7 C
28.06.2012 16:31 24,5 C 59 % 1013,2 hPa 0,0 l/m 2,9 km/h (1 Bft) O 90 15,9 C 24,5 C
28.06.2012 16:36 24,3 C 59 % 1013,4 hPa 0,0 l/m 0,0 km/h (0 Bft) O-NO 67 15,8 C 24,3 C
28.06.2012 16:41 24,3 C 59 % 1013,4 hPa 0,0 l/m 1,8 km/h (1 Bft) O-SO 112 15,8 C 24,3 C
28.06.2012 16:46 24,3 C 59 % 1013,2 hPa 0,0 l/m 5,4 km/h (1 Bft) O 90 15,8 C 24,3 C
28.06.2012 16:51 24,6 C 59 % 1013,0 hPa 0,0 l/m 3,2 km/h (1 Bft) S-SO 157 16,0 C 24,6 C
28.06.2012 16:56 24,6 C 59 % 1013,1 hPa 0,0 l/m 5,8 km/h (2 Bft) SO 135 16,0 C 24,6 C
28.06.2012 17:01 24,8 C 60 % 1013,2 hPa 0,0 l/m 0,0 km/h (0 Bft) S-SO 157 16,5 C 24,8 C
28.06.2012 17:06 24,9 C 60 % 1013,1 hPa 0,0 l/m 11,2 km/h (2 Bft) O 90 16,6 C 24,9 C
28.06.2012 17:11 24,9 C 58 % 1012,9 hPa 0,0 l/m 4,7 km/h (1 Bft) O-NO 67 16,1 C 24,9 C
28.06.2012 17:16 24,9 C 58 % 1013,0 hPa 0,0 l/m 1,4 km/h (1 Bft) O-SO 112 16,1 C 24,9 C
28.06.2012 17:21 24,8 C 59 % 1012,8 hPa 0,0 l/m 3,6 km/h (1 Bft) O 90 16,2 C 24,8 C
28.06.2012 17:26 24,8 C 59 % 1012,9 hPa 0,0 l/m 0,0 km/h (0 Bft) S-SO 157 16,2 C 24,8 C
28.06.2012 17:31 24,7 C 59 % 1012,8 hPa 0,0 l/m 6,5 km/h (2 Bft) SO 135 16,1 C 24,7 C
28.06.2012 17:36 24,6 C 59 % 1012,8 hPa 0,0 l/m 2,9 km/h (1 Bft) O-NO 67 16,0 C 24,6 C
28.06.2012 17:41 24,8 C 59 % 1012,8 hPa 0,0 l/m 3,2 km/h (1 Bft) O 90 16,2 C 24,8 C
28.06.2012 17:46 24,8 C 58 % 1012,7 hPa 0,0 l/m 3,6 km/h (1 Bft) SO 135 16,0 C 24,8 C
28.06.2012 17:51 24,9 C 58 % 1012,8 hPa 0,0 l/m 7,2 km/h (2 Bft) O-NO 67 16,1 C 24,9 C
28.06.2012 17:56 25,0 C 58 % 1012,5 hPa 0,0 l/m 6,5 km/h (2 Bft) O-NO 67 16,1 C 25,0 C
28.06.2012 18:01 24,9 C 58 % 1012,5 hPa 0,0 l/m 6,1 km/h (2 Bft) O 90 16,1 C 24,9 C
28.06.2012 18:06 24,8 C 58 % 1012,4 hPa 0,0 l/m 11,2 km/h (2 Bft) O-SO 112 16,0 C 24,8 C
28.06.2012 18:11 24,5 C 59 % 1012,4 hPa 0,0 l/m 0,0 km/h (0 Bft) O 90 15,9 C 24,5 C
28.06.2012 18:16 24,4 C 59 % 1012,5 hPa 0,0 l/m 7,6 km/h (2 Bft) O-NO 67 15,9 C 24,4 C
28.06.2012 18:21 24,2 C 59 % 1012,6 hPa 0,0 l/m 1,8 km/h (1 Bft) O-SO 112 15,7 C 24,2 C
28.06.2012 18:26 23,9 C 60 % 1012,5 hPa 0,0 l/m 2,9 km/h (1 Bft) O 90 15,7 C 23,9 C
28.06.2012 18:31 23,8 C 61 % 1012,5 hPa 0,0 l/m 0,0 km/h (0 Bft) O-NO 67 15,8 C 23,8 C
28.06.2012 18:36 23,8 C 62 % 1012,6 hPa 0,0 l/m 0,0 km/h (0 Bft) O 90 16,1 C 23,8 C
28.06.2012 18:41 23,8 C 63 % 1012,5 hPa 0,0 l/m 7,2 km/h (2 Bft) O-NO 67 16,3 C 23,8 C
28.06.2012 18:46 23,9 C 63 % 1012,4 hPa 0,0 l/m 5,4 km/h (1 Bft) O-NO 67 16,4 C 23,9 C
28.06.2012 18:51 23,9 C 63 % 1012,3 hPa 0,0 l/m 4,0 km/h (1 Bft) SO 135 16,4 C 23,9 C
28.06.2012 18:56 23,9 C 63 % 1012,3 hPa 0,0 l/m 7,9 km/h (2 Bft) O-NO 67 16,4 C 23,9 C
28.06.2012 19:01 24,0 C 63 % 1012,3 hPa 0,0 l/m 4,7 km/h (1 Bft) SO 135 16,5 C 24,0 C
28.06.2012 19:06 24,1 C 62 % 1012,2 hPa 0,0 l/m 7,6 km/h (2 Bft) O 90 16,4 C 24,1 C
28.06.2012 19:11 24,1 C 62 % 1012,3 hPa 0,0 l/m 4,0 km/h (1 Bft) O 90 16,4 C 24,1 C
28.06.2012 19:16 24,1 C 62 % 1012,2 hPa 0,0 l/m 5,8 km/h (2 Bft) O 90 16,4 C 24,1 C
28.06.2012 19:21 24,0 C 62 % 1012,1 hPa 0,0 l/m 7,6 km/h (2 Bft) O-SO 112 16,3 C 24,0 C
28.06.2012 19:26 23,9 C 62 % 1012,0 hPa 0,0 l/m 4,7 km/h (1 Bft) O-SO 112 16,2 C 23,9 C
28.06.2012 19:31 23,6 C 63 % 1011,9 hPa 0,0 l/m 2,5 km/h (1 Bft) SO 135 16,1 C 23,6 C
28.06.2012 19:36 23,6 C 64 % 1011,9 hPa 0,0 l/m 7,6 km/h (2 Bft) O 90 16,4 C 23,6 C
28.06.2012 19:41 23,6 C 64 % 1011,8 hPa 0,0 l/m 5,8 km/h (2 Bft) O 90 16,4 C 23,6 C
28.06.2012 19:46 23,5 C 64 % 1011,6 hPa 0,0 l/m 5,8 km/h (2 Bft) O-SO 112 16,3 C 23,5 C
28.06.2012 19:51 23,3 C 65 % 1011,7 hPa 0,0 l/m 11,9 km/h (2 Bft) O 90 16,3 C 23,3 C
28.06.2012 19:56 23,2 C 65 % 1011,6 hPa 0,0 l/m 9,4 km/h (2 Bft) O 90 16,2 C 23,2 C
28.06.2012 20:01 23,2 C 65 % 1011,7 hPa 0,0 l/m 7,6 km/h (2 Bft) O-SO 112 16,2 C 23,2 C
28.06.2012 20:06 23,1 C 65 % 1011,7 hPa 0,0 l/m 4,0 km/h (1 Bft) SO 135 16,2 C 23,1 C
28.06.2012 20:11 23,1 C 66 % 1011,9 hPa 0,0 l/m 9,0 km/h (2 Bft) O 90 16,4 C 23,1 C
28.06.2012 20:16 22,9 C 66 % 1012,0 hPa 0,0 l/m 7,6 km/h (2 Bft) O-SO 112 16,2 C 22,9 C
28.06.2012 20:21 22,9 C 66 % 1011,8 hPa 0,0 l/m 8,3 km/h (2 Bft) O-NO 67 16,2 C 22,9 C
28.06.2012 20:26 22,8 C 66 % 1011,8 hPa 0,0 l/m 4,0 km/h (1 Bft) O-SO 112 16,1 C 22,8 C
28.06.2012 20:31 22,7 C 67 % 1011,8 hPa 0,0 l/m 6,5 km/h (2 Bft) SO 135 16,2 C 22,7 C
28.06.2012 20:36 22,6 C 67 % 1011,8 hPa 0,0 l/m 4,7 km/h (1 Bft) O-NO 67 16,2 C 22,6 C
28.06.2012 20:41 22,4 C 68 % 1011,8 hPa 0,0 l/m 6,5 km/h (2 Bft) O 90 16,2 C 22,4 C
28.06.2012 20:46 22,3 C 68 % 1011,8 hPa 0,0 l/m 4,7 km/h (1 Bft) O 90 16,1 C 22,3 C
28.06.2012 20:51 22,2 C 68 % 1011,5 hPa 0,0 l/m 6,1 km/h (2 Bft) O 90 16,0 C 22,2 C
28.06.2012 20:56 22,0 C 69 % 1011,6 hPa 0,0 l/m 6,1 km/h (2 Bft) O 90 16,0 C 22,0 C
28.06.2012 21:01 21,9 C 70 % 1011,6 hPa 0,0 l/m 5,0 km/h (1 Bft) O 90 16,2 C 21,9 C
28.06.2012 21:06 21,8 C 70 % 1011,6 hPa 0,0 l/m 6,5 km/h (2 Bft) O 90 16,1 C 21,8 C
28.06.2012 21:11 21,6 C 71 % 1011,6 hPa 0,0 l/m 2,5 km/h (1 Bft) O 90 16,1 C 21,6 C
28.06.2012 21:16 21,5 C 71 % 1011,8 hPa 0,0 l/m 8,3 km/h (2 Bft) O 90 16,0 C 21,5 C
28.06.2012 21:21 21,4 C 71 % 1011,7 hPa 0,0 l/m 8,3 km/h (2 Bft) O-NO 67 15,9 C 21,4 C
28.06.2012 21:26 21,2 C 72 % 1011,7 hPa 0,0 l/m 4,3 km/h (1 Bft) O-SO 112 15,9 C 21,2 C
28.06.2012 21:31 21,1 C 72 % 1011,7 hPa 0,0 l/m 4,0 km/h (1 Bft) O-SO 112 15,8 C 21,1 C
28.06.2012 21:36 20,9 C 72 % 1011,7 hPa 0,0 l/m 2,5 km/h (1 Bft) O 90 15,7 C 20,9 C
28.06.2012 21:41 20,9 C 73 % 1011,6 hPa 0,0 l/m 4,0 km/h (1 Bft) O-SO 112 15,9 C 20,9 C
28.06.2012 21:46 20,8 C 73 % 1011,7 hPa 0,0 l/m 3,6 km/h (1 Bft) O-SO 112 15,8 C 20,8 C
28.06.2012 21:51 20,7 C 74 % 1011,9 hPa 0,0 l/m 2,5 km/h (1 Bft) O 90 15,9 C 20,7 C
28.06.2012 21:56 20,6 C 74 % 1011,9 hPa 0,0 l/m 2,5 km/h (1 Bft) O 90 15,8 C 20,6 C
28.06.2012 22:01 20,4 C 74 % 1012,0 hPa 0,0 l/m 5,8 km/h (2 Bft) O 90 15,6 C 20,4 C
28.06.2012 22:06 20,4 C 74 % 1012,0 hPa 0,0 l/m 2,5 km/h (1 Bft) O 90 15,6 C 20,4 C
28.06.2012 22:11 20,3 C 75 % 1011,9 hPa 0,0 l/m 3,6 km/h (1 Bft) SO 135 15,7 C 20,3 C
28.06.2012 22:16 20,2 C 75 % 1012,0 hPa 0,0 l/m 2,2 km/h (1 Bft) O-SO 112 15,6 C 20,2 C
28.06.2012 22:21 20,1 C 76 % 1012,0 hPa 0,0 l/m 1,8 km/h (1 Bft) O-SO 112 15,7 C 20,1 C
28.06.2012 22:26 19,9 C 76 % 1012,0 hPa 0,0 l/m 3,6 km/h (1 Bft) O 90 15,5 C 19,9 C
28.06.2012 22:31 19,9 C 76 % 1012,1 hPa 0,0 l/m 3,2 km/h (1 Bft) SO 135 15,5 C 19,9 C
28.06.2012 22:36 19,9 C 76 % 1011,9 hPa 0,0 l/m 4,3 km/h (1 Bft) SO 135 15,5 C 19,9 C
28.06.2012 22:41 19,8 C 76 % 1012,0 hPa 0,0 l/m 4,7 km/h (1 Bft) O-SO 112 15,4 C 19,8 C
28.06.2012 22:46 19,8 C 77 % 1012,0 hPa 0,0 l/m 3,6 km/h (1 Bft) O 90 15,6 C 19,8 C
28.06.2012 22:51 19,6 C 77 % 1011,9 hPa 0,0 l/m 5,8 km/h (2 Bft) O 90 15,5 C 19,6 C
28.06.2012 22:56 19,6 C 77 % 1012,0 hPa 0,0 l/m 2,9 km/h (1 Bft) O 90 15,5 C 19,6 C
28.06.2012 23:01 19,5 C 77 % 1012,0 hPa 0,0 l/m 5,0 km/h (1 Bft) O-SO 112 15,4 C 19,5 C
28.06.2012 23:06 19,4 C 78 % 1011,9 hPa 0,0 l/m 2,2 km/h (1 Bft) O-SO 112 15,5 C 19,4 C
28.06.2012 23:11 19,3 C 78 % 1012,0 hPa 0,0 l/m 4,7 km/h (1 Bft) O-SO 112 15,4 C 19,3 C
28.06.2012 23:16 19,3 C 78 % 1011,9 hPa 0,0 l/m 6,1 km/h (2 Bft) O 90 15,4 C 19,3 C
28.06.2012 23:21 19,2 C 78 % 1011,9 hPa 0,0 l/m 6,5 km/h (2 Bft) O 90 15,3 C 19,2 C
28.06.2012 23:26 19,1 C 78 % 1011,9 hPa 0,0 l/m 5,0 km/h (1 Bft) SO 135 15,2 C 19,1 C
28.06.2012 23:31 19,0 C 79 % 1011,7 hPa 0,0 l/m 10,1 km/h (2 Bft) O-SO 112 15,3 C 19,0 C
28.06.2012 23:36 19,0 C 79 % 1011,7 hPa 0,0 l/m 5,8 km/h (2 Bft) O 90 15,3 C 19,0 C
28.06.2012 23:41 19,0 C 79 % 1011,8 hPa 0,0 l/m 4,7 km/h (1 Bft) O-SO 112 15,3 C 19,0 C
28.06.2012 23:46 18,9 C 79 % 1011,9 hPa 0,0 l/m 4,3 km/h (1 Bft) O-NO 67 15,2 C 18,9 C
28.06.2012 23:51 18,9 C 79 % 1011,8 hPa 0,0 l/m 3,6 km/h (1 Bft) O-SO 112 15,2 C 18,9 C
28.06.2012 23:56 18,9 C 79 % 1011,9 hPa 0,0 l/m 2,5 km/h (1 Bft) O 90 15,2 C 18,9 C
_ Min-Zeit 00:01 15:36 20:51 - 00:01 - - 00:01 00:01
Minimum _ 15,4 C 58 % 1011,5 hPa - 0,0 km/h (0 Bft) - - 13,6 C 15,4 C
_ Max-Zeit 15:26 06:51 00:06 00:01 07:01 - - 15:11 15:26
Maximum _ 25,3 C 91 % 1014,9 hPa 0,0 l/m 12,6 km/h
W-NW (3 Bft)
- - 17,3 C 25,3 C
Durchschnitt _ 19,7 C 77 % 1013,6 hPa #0,0 l/m 3,5 km/h (1 Bft) O - 15,3 C 19,7 C
(c) by David Heller